Location: Nairn
(57.5833°N, 3.8667°W)
Time: 09:28:37
(UTC+00:00)

UNK - Pass Details

Date: 13 December 2021
Orbit: 666 x 686 km, 98.2° (Epoch: 27 January)

Event Time Altitude Azimuth Distance (km) Brightness Sun altitude
Exits shadow 16:59:19 - 11° (N) 3,009 6.7 -10.6°
Reaches altitude 10° 17:01:53 10° 357° (N) 2,111 6.1 -10.9°
Maximum altitude 17:05:25 23° 307° (NW) 1,439 5.8 -11.3°
Drops below altitude 10° 17:08:57 10° 256° (WSW) 2,097 7.7 -11.7°
Sets 17:11:33 0° 242° (WSW) 3,006 9.2 -12.0°
